Flag for Switzerland Weather past 2 weeks in Binningen, Basel-Land, Switzerland

Now
83 °F

Passing clouds.


Feels Like: 83 °F
Forecast: 67 / 88 °F
Wind: 6 mph from Southwest

Location: Bale-Mulhouse

Current Time: Jul 6, 2015 at 12:11:46 AM

Latest Report: Jul 5, 2015 at 10:00 PM


Visibility: 19 mi

Pressure: 29.95 "Hg

Humidity: 48%

Dew point: 61 °F

Location of BinningenLocation

Historic Weather in Binningen — Graph

°F

Binningen temperature yesterday

Maximum temperature yesterday: 98 °F (at 6:00 PM)
Minimum temperature yesterday: 68 °F (at 6:00 AM)
Average temperature yesterday: 84 °F

Past Weeks' High & Low Weather Summary

 TemperatureHumidityPressure
High98 °F (Jul 5, 6:00 PM)98% (Jun 24, 5:00 AM)30.23 "Hg (Jun 24, 5:00 AM)
Low45 °F (Jun 24, 6:00 AM)28% (Jun 26, 3:00 PM)29.75 "Hg (Jun 22, 10:00 PM)
Average71 °F65%30.09 "Hg
* Reported Jun 20 10:00 PM — Jul 5 10:00 PM, Binningen, Weather by CustomWeather, © 2015

Note: Actual official high and low records may vary slightly from our data, if they occured in-between our weather recording intervals... More about our weather records

Advertising

Binningen weather history for previous 24 hours

 ConditionsComfort  
Time TempWeatherWind HumidityBarometerVisibility
10:00 PM
Sun, Jul 5
83 °FPassing clouds.6 mph48%29.95 "Hg19 mi
9:00 PM87 °FPartly sunny.8 mph42%29.92 "Hg19 mi
8:00 PM91 °FScattered clouds.10 mph40%29.88 "Hg19 mi
7:00 PM93 °FScattered clouds.10 mph47%29.86 "Hg19 mi
6:00 PM98 °FScattered clouds.7 mph35%29.85 "Hg19 mi
5:00 PM97 °FScattered clouds.6 mph34%29.86 "Hg19 mi
4:00 PM97 °FPassing clouds.5 mph34%29.89 "Hg19 mi
3:00 PM96 °FPassing clouds.2 mph35%29.92 "Hg19 mi
2:00 PM94 °FPassing clouds.6 mph37%29.96 "Hg19 mi
1:00 PM92 °FScattered clouds.8 mph42%29.98 "Hg19 mi
12:00 PM92 °FPassing clouds.2 mph39%29.98 "Hg19 mi
11:00 AM90 °FPassing clouds.2 mph40%29.99 "Hg12 mi
10:00 AM86 °FPassing clouds.3 mph48%30.01 "Hg12 mi
9:00 AM81 °FPassing clouds.3 mph57%30.03 "Hg12 mi
8:00 AM77 °FPassing clouds.2 mph69%30.05 "Hg12 mi
7:00 AM71 °FPassing clouds.2 mph82%30.05 "Hg12 mi
6:00 AM68 °FPassing clouds.2 mph89%30.06 "Hg12 mi
4:00 AM71 °FMild.5 mph81%30.05 "Hg11 mi
3:00 AM73 °FMild.5 mph76%30.06 "Hg13 mi
2:00 AM74 °FMild.5 mph76%30.06 "Hg17 mi
1:00 AM71 °FMild.3 mph89%30.07 "Hg11 mi
12:00 AM73 °FPassing clouds.2 mph85%30.07 "Hg19 mi
Weather by CustomWeather, © 2015

See weather overviewHow to use our weather pages